星链-35430(STARLINK-35430)

导读

STARLINK-35430是美国SpaceX公司星链星座的量产低轨通信卫星,于2025年10月16日发射入轨。卫星采用平板设计,搭载Ku/Ka波段通信载荷,依托光学星间链路、相控阵技术实现全球宽带互联网覆盖。配备氪工质霍尔推进器,具备自主避撞能力,寿命末期可主动离轨再入烧毁,设计寿命5-7年,是星链大规模星座组网的重要组成单元。

Basic Information
目录编号:
66020
目录名称:
STARLINK-35430
国际标识:
2025-232R
轨道中心:
EARTH
卫星名称:
星链-35430
卫星全名:
星链-35430(STARLINK-35430)
卫星状态:
在轨 (已飞行323 天)
发射日期:
2025-10-16 UTC
国别 :
美国 (US)
星等 :
--
Orbit Information
数据来源 国际轨道数据
星历时间: 2026-09-04T04:12:08+0800
9小时前
查看轨道信息
半长轴: 6840.825km
偏心率: 0.000138
轨道倾角: 53.162°
近地点辐角 84.862°
升交点赤经 355.551°
平近点角 275.253°
近地点: 461.743km
远地点: 463.633km
周期: 93.847分钟
每日圈数: 15.344054
Detailed Information
固有亮度:
5
最大亮度:
2.5
卫星平台:
Starlink V1.0
覆盖范围:
全球
运营商:
太空探索技术公司
运营商所在国:
美国
制造商(研发单位):
太空探索技术公司
制造商所在国:
美国
使用方式:
暂无
Satellite Introduction
Starlink 计划是 SpaceX 推出的全球卫星互联网项目,通过发射低轨道卫星,为全球尤其是偏远地区提供高速、低延迟的互联网服务。自 2019 年起,Starlink 已部署数千颗卫星,旨在缩小全球数字鸿沟,推动互联网普及。该项目还为军事、航空等行业提供通信支持,带来广泛经济效益。
2D Orbit Map
3D Orbit Map
Orbit Altitude Analysis Chart
Orbit Inclination Analysis Chart
Orbit Comprehensive Analysis Chart
View Comprehensive Chart
Conjunction Data List
Event ID Objects TCA Miss Dist (km) Collision Risk Probability Collision Risk Index (CRI) Action
CDM_260905-004906-602006-809221
2026-09-05T
00:49:46+0000
0.208 km
中距离
6.044314E-4 高风险 0.91
CDM_260904-231506-602006-809221
2026-09-04T
23:15:58+0000
1.198 km
极远距离
8.720349E-6 低风险 0.54
CDM_260904-222506-580206-602021
2026-09-04T
22:25:27+0000
1.553 km
极远距离
5.434585E-6 低风险 0.5
CDM_260904-161006-580806-602021
2026-09-04T
16:10:02+0000
1.589 km
极远距离
5.033108E-6 低风险 0.49
CDM_260904-183006-580806-602021
2026-09-04T
18:30:48+0000
1.779 km
极远距离
3.584903E-6 低风险 0.46
CDM_260905-022306-602006-809221
2026-09-05T
02:23:33+0000
1.581 km
极远距离
3.495557E-6 低风险 0.46
CDM_260904-174906-429306-602021
2026-09-04T
17:49:04+0000
2.284 km
极远距离
1.764256E-6 低风险 0.4
CDM_260904-214206-602006-809221
2026-09-04T
21:42:11+0000
2.567 km
极远距离
1.101084E-6 低风险 0.36
CDM_260905-035706-602006-809221
2026-09-05T
03:57:20+0000
2.983 km
极远距离
8.980783E-7 极低风险 0.34
CDM_260903-150805-230306-602022
2026-09-03T
15:08:16+0000
2.932 km
极远距离
4.238108E-7 极低风险 0.28